Wind_Speed
18 17 18 18 19 20 22 23 24 26 27 29 31 33 34 36 37 39 39 40 40 39 39 37 36 35 34 33 33 33 34 34 35 36 37 38 39 39 40 41 42 43
17 17 17 17 18 20 22 23 25 27 28 30 32 34 35 37 39 41 41 42 42 41 40 39 38 36 35 34 34 34 34 35 36 37 38 39 40 41 42 43 45 46
16 16 16 17 19 21 22 24 27 29 30 32 34 35 37 39 41 43 44 44 44 44 43 42 41 39 38 36 35 35 35 36 37 38 39 41 43 44 46 47 48 49
14 15 17 19 21 23 25 27 30 31 33 35 36 37 39 41 43 44 46 46 46 46 45 44 42 40 39 37 36 36 36 37 38 40 42 44 46 48 49 50 51 52
14 16 19 21 23 25 27 30 31 33 35 36 37 38 39 41 43 45 46 47 47 47 46 44 43 41 39 38 38 38 38 39 41 43 45 47 49 50 51 52 53 54
15 18 20 23 25 27 29 31 33 34 35 36 37 38 40 42 44 46 47 48 48 47 46 45 43 42 41 41 40 40 41 42 44 45 47 49 51 52 54 55 56 56
17 19 22 24 26 29 31 32 34 35 36 37 38 39 41 43 45 47 48 49 48 48 47 46 46 45 44 44 43 43 44 44 45 46 48 50 53 54 56 57 58 59
19 21 24 26 28 30 32 34 35 35 36 37 38 40 42 44 46 47 48 49 50 50 49 49 49 48 47 47 46 46 46 46 46 48 50 52 54 56 58 59 61 62
20 23 25 27 29 31 33 34 35 36 37 38 39 41 43 44 46 47 49 50 51 52 52 52 51 50 49 48 48 47 47 47 48 50 52 54 56 58 60 61 63 63
22 24 27 28 30 32 33 35 36 37 38 38 40 42 43 45 46 48 50 52 54 54 54 54 52 51 50 49 49 48 48 49 50 52 54 57 58 60 62 63 64 65
22 25 27 28 30 31 33 35 36 38 39 40 41 42 43 45 47 48 51 53 55 55 55 55 54 52 51 51 50 50 50 51 53 55 57 58 60 62 64 65 67 68
22 25 26 28 29 31 33 35 37 38 40 41 41 42 44 45 47 49 51 53 55 56 56 56 55 54 54 53 53 53 53 54 55 57 58 60 62 64 66 68 70 72
23 25 26 28 29 32 34 36 37 39 40 41 42 42 43 45 47 49 51 53 54 55 57 57 57 57 57 56 56 56 56 57 58 59 60 62 65 67 69 72 74 75
23 25 27 28 30 32 34 36 38 39 41 41 42 42 43 45 48 49 51 53 54 56 57 58 59 60 60 60 59 59 59 59 60 61 63 65 67 70 73 75 77 79
24 25 27 28 30 32 34 36 38 39 41 41 42 43 44 46 48 49 51 53 54 56 57 59 61 62 63 63 63 63 62 62 63 64 65 68 70 73 76 79 81 82
24 26 27 29 31 32 34 36 37 39 40 41 42 43 44 46 48 49 51 53 54 56 58 60 62 64 65 66 66 66 65 66 66 67 69 71 74 76 79 81 83 85
25 26 27 29 31 33 34 36 37 39 40 41 42 43 44 46 47 49 51 52 54 56 59 61 63 65 67 68 68 68 68 69 70 71 72 74 76 79 81 84 86 88
25 26 27 29 31 33 35 36 37 39 40 41 43 44 45 46 48 49 51 53 55 57 59 62 64 66 68 69 70 70 71 72 73 74 75 77 79 81 83 85 88 90
25 26 28 30 32 33 35 36 38 39 40 41 43 44 45 47 48 49 51 53 55 58 60 62 64 66 68 70 71 73 74 75 76 77 78 79 81 83 85 87 90 92
25 26 28 30 32 34 35 37 38 39 40 41 43 44 46 47 48 50 52 54 56 58 60 62 64 66 68 71 73 75 76 78 79 80 80 81 83 85 87 89 92 94
25 27 28 30 32 34 35 37 38 39 40 42 43 44 45 47 49 51 53 55 57 59 61 63 65 67 69 72 74 76 78 80 81 82 82 83 84 86 89 91 94 96
25 27 28 30 33 34 36 37 38 39 41 42 43 44 46 47 49 52 54 56 58 60 62 63 65 68 70 72 75 77 79 81 83 84 85 85 86 88 90 93 95 98
26 27 29 31 33 35 36 37 38 40 41 42 43 45 46 48 50 52 55 57 59 61 63 64 66 69 71 73 76 78 80 83 84 86 87 88 89 90 92 94 97 99
26 28 29 31 33 35 36 38 39 40 42 43 44 46 47 49 51 53 55 57 60 62 64 66 68 70 72 75 77 79 81 84 86 88 89 90 91 92 94 96 98 100
27 28 30 32 34 36 37 38 39 40 42 44 45 47 48 50 52 53 56 58 60 62 65 67 69 71 73 76 78 80 82 85 87 89 90 92 93 94 96 97 99 101
28 29 30 32 34 36 37 38 40 41 43 44 46 48 49 51 53 54 56 58 61 63 65 68 70 72 74 76 78 81 83 85 88 90 91 93 94 96 97 99 100 102
Wind_Direction
19 16 13 12 11 10 8 6 4 3 4 5 6 6 5 3 1 360 358 356 354 351 348 344 340 336 332 329 327 327 327 328 329 329 329 328 327 326 324 322 321 319
19 15 13 11 9 7 5 3 3 4 5 5 6 5 4 2 1 360 359 357 355 352 349 346 343 339 336 333 330 329 328 329 330 330 330 330 330 329 327 326 325 323
16 12 10 8 6 5 4 4 5 6 5 5 5 4 2 1 0 360 359 357 355 352 350 347 344 341 338 335 333 331 329 329 330 331 332 333 333 332 331 330 328 327
12 9 7 6 5 4 5 6 6 6 5 5 4 3 1 0 360 359 359 357 355 353 350 348 345 343 340 338 335 333 332 332 333 334 335 336 336 335 333 332 330 329
10 7 5 4 4 5 6 6 6 6 6 5 4 2 1 0 360 359 358 357 355 353 351 349 347 345 343 341 339 338 336 336 336 337 337 337 336 336 334 333 332 331
9 6 5 4 4 5 6 6 6 6 6 5 3 2 2 1 1 360 359 357 355 354 352 351 350 349 347 345 344 342 341 340 339 339 338 338 337 336 336 335 334 333
8 7 6 5 5 6 6 6 6 5 4 3 3 2 2 2 1 0 360 358 356 355 355 354 353 352 351 349 347 345 343 342 341 339 339 339 338 338 337 337 336 336
8 6 5 5 5 5 5 5 4 3 3 2 2 2 2 2 1 1 360 359 358 358 357 357 356 355 353 351 349 347 345 344 342 341 341 341 340 340 339 339 338 337
6 5 4 4 4 4 4 4 3 3 2 2 2 3 2 2 1 1 0 360 0 360 359 358 357 356 354 353 351 349 347 346 345 344 344 343 343 342 342 341 340 339
4 3 2 2 3 4 4 4 4 3 3 3 3 3 2 1 1 1 1 1 2 1 1 359 358 356 355 354 352 351 350 349 348 347 347 346 345 344 343 342 341 341
2 0 360 1 2 4 4 4 4 4 4 4 3 3 2 1 1 1 2 2 3 2 1 0 359 358 356 355 354 353 352 351 350 350 349 348 347 346 345 344 344 344
359 358 358 0 2 4 5 5 5 5 5 5 4 2 1 1 1 2 2 3 2 2 1 1 0 359 358 357 356 355 354 353 352 351 350 350 349 348 347 347 347 347
357 357 358 360 2 3 4 4 4 5 5 4 3 1 1 1 1 2 2 2 2 1 1 1 1 0 360 359 358 357 355 354 353 352 351 351 350 350 350 350 349 349
355 356 357 358 360 2 3 3 3 3 3 3 1 360 359 360 1 1 1 1 0 0 0 0 1 1 1 0 360 358 357 355 354 353 353 352 352 352 352 352 351 351
353 354 355 357 358 0 1 1 1 2 1 360 358 357 357 359 0 0 360 359 359 359 359 360 0 1 1 1 1 360 358 356 355 354 354 354 354 353 353 353 353 352
351 352 354 355 357 359 359 359 359 359 358 356 355 354 355 357 358 358 358 358 358 358 358 359 360 0 1 1 1 360 359 357 357 356 356 355 355 355 355 354 354 354
349 350 352 354 356 358 357 357 357 356 354 353 352 353 354 355 356 356 356 356 356 357 358 358 359 360 0 1 0 360 359 359 358 358 357 357 357 356 355 355 355 355
347 349 351 353 355 356 355 355 354 352 351 351 351 352 354 354 354 353 354 354 355 356 357 358 358 359 359 359 360 360 360 359 359 359 359 358 357 357 356 356 356 356
345 347 350 352 354 353 353 352 351 349 349 349 350 352 353 353 352 352 352 353 354 355 356 357 357 357 358 358 359 360 360 360 360 360 360 359 358 357 357 357 357 357
343 346 349 351 352 352 351 350 348 347 347 348 350 351 352 352 352 352 352 353 354 355 355 356 356 356 356 357 359 359 360 360 0 1 0 360 359 358 357 358 358 358
342 345 347 349 350 350 349 347 346 346 346 348 349 350 351 351 351 352 353 353 354 354 355 355 355 355 356 357 358 359 359 359 0 1 1 0 359 358 358 358 359 359
340 343 345 348 348 347 346 345 344 344 345 347 348 349 349 349 350 351 352 353 353 353 354 354 354 355 356 356 357 358 359 359 360 1 1 1 360 359 359 359 359 360
338 340 343 345 346 344 343 342 342 343 344 346 347 348 347 347 348 350 352 352 352 352 352 353 353 354 355 356 357 357 358 359 359 0 1 1 0 360 360 360 360 0
335 337 340 342 342 341 340 339 339 341 343 345 346 346 345 345 347 349 351 351 351 351 351 352 353 354 355 356 356 357 358 358 359 360 0 1 0 0 0 0 1 1
333 335 337 339 339 337 337 337 337 338 341 343 344 344 344 344 346 349 350 350 350 350 350 351 352 353 354 355 356 356 357 358 358 359 0 0 0 0 0 1 1 1
331 333 335 336 335 334 334 334 335 337 339 341 342 342 343 344 346 348 349 348 348 349 349 350 352 353 354 354 355 356 356 357 358 359 360 0 360 360 0 1 1 1
Height
10670 10669 10668 10667 10665 10663 10661 10659 10656 10654 10650 10647 10643 10639 10636 10632 10629 10626 10622 10618 10614 10610 10606 10602 10598 10595 10591 10588 10585 10581 10578 10575 10571 10568 10564 10560 10557 10553 10549 10545 10541 10536
10670 10669 10668 10667 10666 10664 10661 10659 10656 10653 10649 10645 10641 10638 10634 10631 10627 10624 10619 10615 10611 10607 10603 10599 10596 10592 10588 10585 10581 10578 10575 10571 10568 10564 10560 10556 10552 10548 10543 10539 10534 10529
10670 10669 10669 10668 10666 10664 10661 10658 10654 10651 10647 10643 10639 10636 10632 10629 10625 10621 10616 10612 10608 10604 10600 10596 10592 10588 10585 10581 10578 10575 10571 10568 10564 10560 10556 10551 10547 10542 10537 10532 10527 10521
10670 10670 10669 10667 10665 10662 10659 10655 10652 10648 10644 10640 10637 10633 10630 10626 10622 10618 10614 10610 10606 10602 10597 10593 10589 10586 10582 10578 10575 10571 10567 10564 10560 10555 10550 10545 10540 10535 10530 10525 10520 10515
10671 10670 10668 10666 10663 10660 10657 10653 10650 10646 10642 10639 10635 10632 10628 10625 10620 10616 10612 10608 10604 10600 10596 10591 10587 10583 10579 10575 10571 10567 10563 10559 10554 10549 10544 10539 10535 10530 10525 10520 10514 10509
10671 10669 10667 10664 10661 10658 10655 10651 10648 10644 10640 10637 10634 10631 10627 10623 10619 10614 10610 10606 10602 10598 10594 10589 10585 10580 10576 10571 10567 10563 10558 10554 10549 10544 10540 10535 10530 10525 10519 10514 10508 10502
10670 10668 10666 10663 10660 10656 10653 10649 10645 10642 10639 10636 10632 10629 10625 10621 10616 10612 10608 10604 10600 10596 10591 10586 10581 10576 10571 10567 10562 10558 10553 10549 10545 10541 10536 10531 10525 10520 10514 10508 10501 10494
10668 10666 10664 10661 10658 10654 10651 10647 10644 10640 10637 10634 10631 10627 10622 10618 10614 10610 10607 10603 10598 10593 10588 10582 10577 10572 10567 10563 10558 10554 10550 10546 10542 10538 10532 10527 10521 10515 10508 10501 10495 10488
10667 10664 10662 10659 10655 10652 10649 10645 10642 10639 10636 10632 10628 10624 10620 10617 10613 10609 10605 10601 10596 10590 10584 10578 10574 10569 10565 10560 10556 10552 10548 10543 10539 10533 10528 10522 10516 10509 10503 10496 10489 10483
10665 10663 10660 10657 10654 10650 10647 10644 10641 10638 10634 10630 10626 10622 10619 10615 10611 10607 10603 10598 10592 10586 10581 10577 10572 10568 10563 10559 10555 10550 10545 10540 10535 10529 10523 10517 10511 10504 10498 10491 10484 10477
10664 10661 10659 10656 10653 10649 10646 10643 10639 10636 10632 10628 10624 10620 10617 10613 10610 10606 10600 10595 10590 10585 10581 10577 10572 10567 10562 10557 10553 10547 10542 10536 10531 10525 10519 10513 10507 10500 10494 10486 10478 10469
10663 10660 10658 10655 10652 10648 10645 10641 10638 10634 10630 10626 10622 10619 10616 10612 10609 10604 10599 10594 10589 10585 10581 10576 10571 10566 10561 10556 10550 10544 10538 10533 10527 10521 10515 10509 10503 10496 10489 10481 10471 10462
10662 10659 10656 10653 10650 10647 10643 10640 10636 10632 10628 10625 10622 10619 10615 10612 10608 10603 10598 10593 10589 10585 10580 10576 10570 10565 10559 10553 10547 10541 10535 10530 10524 10518 10512 10505 10498 10491 10482 10473 10463 10454
10660 10658 10655 10652 10649 10645 10642 10638 10635 10631 10627 10624 10622 10619 10615 10611 10606 10601 10597 10593 10589 10585 10580 10575 10569 10563 10557 10551 10545 10538 10532 10526 10520 10514 10508 10501 10493 10484 10475 10465 10456 10446
10659 10656 10654 10651 10647 10644 10640 10637 10633 10630 10627 10624 10621 10618 10615 10610 10605 10601 10597 10593 10588 10584 10579 10573 10567 10561 10554 10548 10541 10535 10529 10523 10517 10510 10503 10495 10486 10477 10468 10458 10448 10438
10658 10655 10652 10649 10646 10642 10639 10635 10632 10629 10627 10624 10621 10618 10614 10609 10604 10600 10596 10592 10588 10583 10577 10571 10565 10558 10552 10545 10539 10532 10526 10519 10512 10505 10497 10488 10479 10470 10460 10451 10441 10431
10656 10654 10651 10648 10644 10641 10637 10634 10631 10629 10626 10624 10621 10617 10612 10608 10604 10600 10596 10591 10586 10581 10575 10569 10562 10556 10549 10543 10537 10530 10523 10516 10508 10500 10491 10482 10473 10464 10454 10445 10436 10425
10655 10652 10649 10646 10642 10639 10636 10633 10631 10628 10626 10623 10620 10615 10611 10606 10602 10599 10594 10590 10585 10579 10573 10566 10560 10554 10547 10541 10534 10527 10519 10511 10503 10495 10486 10477 10468 10459 10450 10441 10431 10420
10653 10651 10648 10644 10641 10638 10635 10632 10630 10628 10625 10622 10618 10614 10609 10605 10601 10597 10593 10588 10582 10576 10570 10564 10558 10551 10545 10539 10532 10524 10515 10507 10499 10491 10482 10473 10464 10455 10446 10436 10425 10414
10652 10649 10646 10642 10639 10637 10634 10631 10629 10627 10624 10621 10617 10612 10608 10604 10600 10595 10591 10585 10579 10573 10567 10562 10556 10550 10543 10536 10528 10520 10512 10504 10496 10487 10478 10469 10460 10451 10442 10431 10420 10409
10650 10647 10644 10641 10638 10635 10633 10630 10628 10626 10623 10619 10615 10610 10606 10602 10598 10593 10588 10582 10576 10570 10565 10559 10554 10547 10540 10532 10524 10516 10509 10501 10492 10484 10475 10466 10457 10448 10437 10427 10416 10404
10648 10645 10642 10639 10636 10634 10631 10629 10627 10624 10621 10617 10612 10608 10604 10600 10596 10591 10585 10579 10573 10568 10563 10557 10551 10544 10537 10529 10521 10513 10505 10497 10489 10480 10471 10463 10454 10444 10433 10422 10411 10400
10646 10643 10640 10637 10635 10632 10630 10628 10626 10623 10619 10615 10610 10606 10602 10598 10593 10588 10582 10576 10571 10566 10560 10554 10548 10541 10533 10525 10518 10510 10502 10494 10485 10477 10468 10459 10450 10440 10430 10418 10407 10396
10644 10641 10638 10635 10633 10631 10629 10627 10624 10621 10617 10612 10608 10604 10600 10596 10591 10585 10580 10574 10569 10563 10557 10551 10544 10537 10529 10522 10514 10506 10498 10490 10481 10473 10464 10455 10446 10436 10426 10416 10404 10392
10642 10639 10636 10634 10632 10630 10627 10625 10622 10618 10614 10610 10605 10602 10598 10593 10588 10582 10577 10572 10566 10560 10554 10548 10541 10533 10525 10518 10510 10502 10495 10486 10478 10469 10460 10450 10441 10432 10422 10412 10402 10390
10640 10637 10634 10632 10630 10628 10626 10623 10620 10616 10612 10607 10603 10599 10595 10590 10585 10580 10575 10569 10564 10558 10551 10544 10537 10530 10522 10515 10507 10499 10491 10483 10475 10466 10456 10447 10438 10429 10419 10409 10398 10387